| time (UTC) | temp F | wind direction | speed knots | gust knots | rain 1hr in | rain 24hr in | rain mn in | humidity % | barometer mb |
| 20260505014503 | 58 | 57 | 1.7 | 3.5 | 0.00 | 0.00 | 0.00 | 72 | 1011.9 |
| 20260505014003 | 58 | 57 | 1.7 | 3.5 | 0.00 | 0.00 | 0.00 | 72 | 1012.0 |
| 20260505013503 | 58 | 64 | 1.7 | 4.3 | 0.00 | 0.00 | 0.00 | 72 | 1012.0 |
| 20260505013003 | 59 | 55 | 2.6 | 3.5 | 0.00 | 0.00 | 0.00 | 72 | 1011.9 |
| 20260505012503 | 59 | 62 | 1.7 | 3.5 | 0.00 | 0.00 | 0.00 | 72 | 1012.0 |
| 20260505012003 | 59 | 67 | 0.9 | 3.5 | 0.00 | 0.00 | 0.00 | 72 | 1012.1 |
| 20260505011507 | 59 | 71 | 0.9 | 2.6 | 0.00 | 0.00 | 0.00 | 72 | 1012.1 |
| 20260505011003 | 59 | 62 | 0.9 | 3.5 | 0.00 | 0.00 | 0.00 | 72 | 1012.1 |
| 20260505010503 | 59 | 68 | 1.7 | 3.5 | 0.00 | 0.00 | 0.00 | 72 | 1012.1 |
| 20260505010003 | 59 | 72 | 1.7 | 3.5 | 0.00 | 0.00 | 0.00 | 72 | 1012.2 |
| 20260505005503 | 59 | 67 | 0.0 | 2.6 | 0.00 | 0.00 | 0.00 | 72 | 1012.1 |
| 20260505005004 | 59 | 58 | 1.7 | 3.5 | 0.00 | 0.00 | 0.00 | 72 | 1012.0 |
| 20260505004503 | 59 | 67 | 0.9 | 2.6 | 0.00 | 0.00 | 0.00 | 72 | 1012.0 |
| 20260505004003 | 59 | 71 | 0.0 | 1.7 | 0.00 | 0.00 | 0.00 | 72 | 1012.0 |
| 20260505003503 | 59 | 60 | 0.9 | 1.7 | 0.00 | 0.00 | 0.00 | 72 | 1011.9 |
| 20260505003003 | 59 | 75 | 0.0 | 1.7 | 0.00 | 0.00 | 0.00 | 72 | 1012.0 |
| 20260505002503 | 59 | 62 | 1.7 | 3.5 | 0.00 | 0.00 | 0.00 | 72 | 1012.0 |
| 20260505002003 | 58 | 61 | 0.9 | 3.5 | 0.00 | 0.00 | 0.00 | 72 | 1012.1 |
| 20260505001503 | 58 | 58 | 0.0 | 1.7 | 0.00 | 0.00 | 0.00 | 72 | 1012.1 |
| 20260505001003 | 58 | 54 | 0.0 | 1.7 | 0.00 | 0.00 | 0.00 | 72 | 1012.1 |
| 20260505000503 | 58 | 45 | 0.9 | 1.7 | 0.00 | 0.00 | 0.00 | 72 | 1012.2 |
| 20260505000003 | 58 | 112 | 0.0 | 0.9 | 0.00 | 0.00 | 0.00 | 72 | 1012.2 |
| 20260504235503 | 58 | 127 | 0.9 | 2.6 | 0.00 | 0.00 | 0.00 | 72 | 1012.2 |
| 20260504235003 | 58 | 0 | 0.0 | 0.0 | 0.00 | 0.00 | 0.00 | 72 | 1012.3 |
| 20260504234503 | 58 | 0 | 0.0 | 0.0 | 0.00 | 0.00 | 0.00 | 72 | 1012.4 |
| 20260504234003 | 58 | 22 | 0.0 | 0.9 | 0.00 | 0.00 | 0.00 | 72 | 1012.5 |
| 20260504233503 | 58 | 22 | 1.7 | 2.6 | 0.00 | 0.00 | 0.00 | 72 | 1012.4 |
| 20260504233003 | 58 | 22 | 1.7 | 2.6 | 0.00 | 0.00 | 0.00 | 72 | 1012.6 |
| 20260504232503 | 59 | 22 | 1.7 | 2.6 | 0.00 | 0.00 | 0.00 | 72 | 1012.5 |
| 20260504232003 | 59 | 22 | 0.9 | 3.5 | 0.00 | 0.00 | 0.00 | 72 | 1012.6 |
| 20260504231503 | 59 | 22 | 1.7 | 3.5 | 0.00 | 0.00 | 0.00 | 72 | 1012.5 |
| 20260504231003 | 59 | 22 | 2.6 | 4.3 | 0.00 | 0.00 | 0.00 | 72 | 1012.7 |
| 20260504230503 | 59 | 23 | 2.6 | 4.3 | 0.00 | 0.00 | 0.00 | 72 | 1012.7 |
| 20260504230003 | 59 | 26 | 2.6 | 4.3 | 0.00 | 0.00 | 0.00 | 72 | 1012.6 |
| 20260504225503 | 59 | 22 | 1.7 | 2.6 | 0.00 | 0.00 | 0.00 | 72 | 1012.7 |
| 20260504225003 | 59 | 22 | 1.7 | 3.5 | 0.00 | 0.00 | 0.00 | 72 | 1012.9 |
| 20260504224503 | 59 | 22 | 1.7 | 3.5 | 0.00 | 0.00 | 0.00 | 72 | 1012.9 |
| 20260504224003 | 59 | 22 | 1.7 | 3.5 | 0.00 | 0.00 | 0.00 | 72 | 1012.9 |
| 20260504223503 | 59 | 22 | 1.7 | 2.6 | 0.00 | 0.00 | 0.00 | 72 | 1013.0 |
| 20260504223003 | 59 | 35 | 1.7 | 2.6 | 0.00 | 0.00 | 0.00 | 72 | 1013.1 |
| 20260504222503 | 59 | 30 | 2.6 | 5.2 | 0.00 | 0.00 | 0.00 | 72 | 1013.1 |
| 20260504222003 | 59 | 27 | 3.5 | 6.1 | 0.00 | 0.00 | 0.00 | 72 | 1013.1 |
| 20260504221503 | 59 | 22 | 2.6 | 5.2 | 0.00 | 0.00 | 0.00 | 72 | 1013.2 |
| 20260504221003 | 59 | 22 | 1.7 | 2.6 | 0.00 | 0.00 | 0.00 | 72 | 1013.0 |
| 20260504220503 | 59 | 22 | 1.7 | 3.5 | 0.00 | 0.00 | 0.00 | 72 | 1013.1 |
| 20260504220003 | 60 | 22 | 1.7 | 3.5 | 0.00 | 0.00 | 0.00 | 72 | 1013.2 |
| 20260504215503 | 60 | 22 | 0.9 | 1.7 | 0.00 | 0.00 | 0.00 | 72 | 1013.2 |
| 20260504215003 | 60 | 22 | 0.9 | 2.6 | 0.00 | 0.00 | 0.00 | 72 | 1013.2 |
| 20260504214503 | 60 | 22 | 0.9 | 1.7 | 0.00 | 0.00 | 0.00 | 71 | 1013.1 |
| 20260504214003 | 60 | 22 | 0.0 | 1.7 | 0.00 | 0.00 | 0.00 | 71 | 1013.2 |
| 20260504213503 | 60 | 25 | 1.7 | 2.6 | 0.00 | 0.00 | 0.00 | 71 | 1013.3 |
| 20260504213003 | 61 | 45 | 0.9 | 1.7 | 0.00 | 0.00 | 0.00 | 71 | 1013.2 |
| 20260504212503 | 61 | 45 | 0.9 | 1.7 | 0.00 | 0.00 | 0.00 | 71 | 1013.2 |
| 20260504212003 | 61 | 45 | 0.0 | 1.7 | 0.00 | 0.00 | 0.00 | 71 | 1013.2 |
| 20260504211503 | 62 | 45 | 0.9 | 1.7 | 0.00 | 0.00 | 0.00 | 71 | 1013.3 |
| 20260504211003 | 62 | 45 | 1.7 | 1.7 | 0.00 | 0.00 | 0.00 | 71 | 1013.2 |
| 20260504210503 | 62 | 45 | 0.9 | 1.7 | 0.00 | 0.00 | 0.00 | 71 | 1013.3 |
| 20260504210003 | 62 | 45 | 0.0 | 1.7 | 0.00 | 0.00 | 0.00 | 71 | 1013.2 |
| 20260504205503 | 62 | 45 | 0.0 | 1.7 | 0.00 | 0.00 | 0.00 | 71 | 1013.2 |
| 20260504205003 | 62 | 45 | 0.9 | 1.7 | 0.00 | 0.00 | 0.00 | 71 | 1013.1 |
| 20260504204503 | 62 | 45 | 0.9 | 1.7 | 0.00 | 0.00 | 0.00 | 71 | 1013.3 |
| 20260504204003 | 62 | 45 | 0.0 | 1.7 | 0.00 | 0.00 | 0.00 | 70 | 1013.2 |
| 20260504203503 | 62 | 0 | 0.0 | 0.0 | 0.00 | 0.00 | 0.00 | 70 | 1013.3 |
| 20260504203003 | 62 | 0 | 0.0 | 0.0 | 0.00 | 0.00 | 0.00 | 70 | 1013.3 |
| 20260504202503 | 63 | 0 | 0.0 | 0.0 | 0.00 | 0.00 | 0.00 | 70 | 1013.3 |
| 20260504202003 | 63 | 0 | 0.0 | 0.0 | 0.00 | 0.00 | 0.00 | 70 | 1013.2 |
| 20260504201503 | 63 | 0 | 0.0 | 0.0 | 0.00 | 0.00 | 0.00 | 70 | 1013.2 |
| 20260504201003 | 63 | 0 | 0.0 | 0.0 | 0.00 | 0.00 | 0.00 | 70 | 1013.2 |
| 20260504200503 | 63 | 0 | 0.0 | 0.0 | 0.00 | 0.00 | 0.00 | 69 | 1013.2 |
| 20260504200003 | 63 | 0 | 0.0 | 0.0 | 0.00 | 0.00 | 0.00 | 69 | 1013.1 |
| 20260504195503 | 63 | 0 | 0.0 | 0.0 | 0.00 | 0.00 | 0.00 | 69 | 1013.1 |
| 20260504195003 | 63 | 0 | 0.0 | 0.0 | 0.00 | 0.00 | 0.00 | 69 | 1013.0 |
| 20260504194503 | 64 | 0 | 0.0 | 0.0 | 0.00 | 0.00 | 0.00 | 69 | 1012.9 |
| 20260504194003 | 63 | 0 | 0.0 | 0.0 | 0.00 | 0.00 | 0.00 | 69 | 1012.9 |
| 20260504193503 | 64 | 0 | 0.0 | 0.0 | 0.00 | 0.00 | 0.00 | 69 | 1013.0 |
| 20260504193003 | 64 | 0 | 0.0 | 0.0 | 0.00 | 0.00 | 0.00 | 69 | 1013.0 |
| 20260504192717 | 64 | 0 | 0.0 | 0.0 | 0.00 | 0.00 | 0.00 | 69 | 1013.0 |
| 20260504192003 | 64 | 0 | 0.0 | 0.0 | 0.00 | 0.00 | 0.00 | 69 | 1012.9 |
| 20260504191503 | 64 | 0 | 0.0 | 0.0 | 0.00 | 0.00 | 0.00 | 69 | 1012.9 |
| 20260504191003 | 64 | 0 | 0.0 | 0.0 | 0.00 | 0.00 | 0.00 | 69 | 1012.8 |
| 20260504190503 | 64 | 0 | 0.0 | 0.0 | 0.00 | 0.00 | 0.00 | 69 | 1012.7 |
| 20260504190003 | 64 | 0 | 0.0 | 0.0 | 0.00 | 0.00 | 0.00 | 69 | 1012.7 |
| 20260504185503 | 65 | 0 | 0.0 | 0.0 | 0.00 | 0.00 | 0.00 | 68 | 1012.6 |
| 20260504185003 | 65 | 0 | 0.0 | 0.0 | 0.00 | 0.00 | 0.00 | 68 | 1012.8 |
| 20260504184503 | 65 | 0 | 0.0 | 0.0 | 0.00 | 0.00 | 0.00 | 68 | 1012.8 |
| 20260504184004 | 65 | 0 | 0.0 | 0.0 | 0.00 | 0.00 | 0.00 | 68 | 1012.7 |
| 20260504183503 | 65 | 0 | 0.0 | 0.0 | 0.00 | 0.00 | 0.00 | 68 | 1012.4 |
| 20260504183003 | 65 | 0 | 0.0 | 0.0 | 0.00 | 0.00 | 0.00 | 68 | 1012.5 |
| 20260504182503 | 65 | 0 | 0.0 | 0.0 | 0.00 | 0.00 | 0.00 | 68 | 1012.5 |
| 20260504182003 | 65 | 0 | 0.0 | 0.0 | 0.00 | 0.00 | 0.00 | 68 | 1012.5 |
| 20260504181503 | 65 | 45 | 0.0 | 0.9 | 0.00 | 0.00 | 0.00 | 68 | 1012.4 |
| 20260504181003 | 65 | 45 | 0.0 | 0.9 | 0.00 | 0.00 | 0.00 | 68 | 1012.4 |
| 20260504180503 | 65 | 45 | 0.0 | 1.7 | 0.00 | 0.00 | 0.00 | 68 | 1012.3 |
| 20260504180003 | 65 | 45 | 0.0 | 1.7 | 0.00 | 0.00 | 0.00 | 68 | 1012.3 |
| 20260504175503 | 65 | 45 | 0.0 | 1.7 | 0.00 | 0.00 | 0.00 | 68 | 1012.2 |
| 20260504175003 | 66 | 45 | 0.9 | 3.5 | 0.00 | 0.00 | 0.00 | 68 | 1012.1 |
| 20260504174503 | 66 | 45 | 1.7 | 3.5 | 0.00 | 0.00 | 0.00 | 68 | 1012.1 |
| 20260504174003 | 66 | 45 | 0.9 | 2.6 | 0.00 | 0.00 | 0.00 | 68 | 1012.1 |
| 20260504173503 | 66 | 45 | 0.0 | 1.7 | 0.00 | 0.00 | 0.00 | 68 | 1012.3 |
| 20260504173003 | 66 | 0 | 0.0 | 0.0 | 0.00 | 0.00 | 0.00 | 68 | 1012.2 |
| 20260504172503 | 66 | 0 | 0.0 | 0.0 | 0.00 | 0.00 | 0.00 | 68 | 1012.2 |
| 20260504172003 | 66 | 130 | 0.0 | 1.7 | 0.00 | 0.00 | 0.00 | 68 | 1012.2 |
| 20260504171503 | 66 | 112 | 0.0 | 0.9 | 0.00 | 0.00 | 0.00 | 68 | 1012.2 |
| 20260504171003 | 66 | 155 | 0.9 | 2.6 | 0.00 | 0.00 | 0.00 | 67 | 1012.1 |
| 20260504170503 | 66 | 131 | 0.0 | 1.7 | 0.00 | 0.00 | 0.00 | 67 | 1012.0 |
| 20260504151003 | 70 | 171 | 2.6 | 6.1 | 0.00 | 0.00 | 0.00 | 64 | 1012.1 |
| 20260504150503 | 70 | 171 | 3.5 | 5.2 | 0.00 | 0.00 | 0.00 | 63 | 1012.1 |
| 20260504141003 | 71 | 172 | 3.5 | 8.7 | 0.00 | 0.00 | 0.00 | 57 | 1012.2 |
| 20260504140503 | 71 | 170 | 3.5 | 8.7 | 0.00 | 0.00 | 0.00 | 57 | 1012.2 |
| 20260504130503 | 72 | 166 | 3.5 | 7.0 | 0.00 | 0.00 | 0.00 | 49 | 1012.4 |
| 20260504110503 | 70 | 208 | 2.6 | 8.7 | 0.00 | 0.00 | 0.00 | 59 | 1013.3 |
| 20260504100503 | 71 | 212 | 3.5 | 6.1 | 0.00 | 0.00 | 0.00 | 50 | 1013.9 |
| 20260504082003 | 68 | 220 | 1.7 | 4.3 | 0.00 | 0.00 | 0.00 | 57 | 1014.3 |
| 20260504081503 | 67 | 217 | 2.6 | 5.2 | 0.00 | 0.00 | 0.00 | 56 | 1014.4 |
| 20260504081003 | 67 | 213 | 1.7 | 5.2 | 0.00 | 0.00 | 0.00 | 56 | 1014.3 |
| 20260504080503 | 67 | 216 | 2.6 | 6.1 | 0.00 | 0.00 | 0.00 | 57 | 1014.4 |
| 20260504050503 | 56 | 22 | 1.7 | 2.6 | 0.00 | 0.00 | 0.00 | 71 | 1013.6 |
| 20260504050003 | 56 | 22 | 0.0 | 1.7 | 0.00 | 0.00 | 0.00 | 71 | 1013.6 |
| 20260504045503 | 56 | 22 | 0.0 | 1.7 | 0.00 | 0.00 | 0.00 | 71 | 1013.5 |
| 20260504045003 | 55 | 22 | 0.9 | 1.7 | 0.00 | 0.00 | 0.00 | 71 | 1013.6 |
| 20260504044503 | 55 | 22 | 0.0 | 0.9 | 0.00 | 0.00 | 0.00 | 71 | 1013.5 |
| 20260504044003 | 54 | 22 | 0.0 | 0.9 | 0.00 | 0.00 | 0.00 | 72 | 1013.3 |
| 20260504043503 | 54 | 22 | 0.9 | 1.7 | 0.00 | 0.00 | 0.00 | 72 | 1013.4 |
| 20260504043003 | 54 | 22 | 0.0 | 1.7 | 0.00 | 0.00 | 0.00 | 71 | 1013.3 |
| 20260504042503 | 54 | 22 | 0.9 | 1.7 | 0.00 | 0.00 | 0.00 | 72 | 1013.2 |
| 20260504042003 | 53 | 22 | 1.7 | 2.6 | 0.00 | 0.00 | 0.00 | 72 | 1013.2 |
| 20260504041503 | 53 | 22 | 0.9 | 1.7 | 0.00 | 0.00 | 0.00 | 72 | 1013.2 |
| 20260504041003 | 53 | 22 | 0.9 | 1.7 | 0.00 | 0.00 | 0.00 | 72 | 1013.2 |
| 20260504040503 | 53 | 22 | 0.9 | 1.7 | 0.00 | 0.00 | 0.00 | 72 | 1013.2 |
| 20260504040003 | 53 | 22 | 0.9 | 1.7 | 0.00 | 0.00 | 0.00 | 72 | 1013.2 |
| 20260504035503 | 53 | 0 | 0.0 | 0.0 | 0.00 | 0.00 | 0.00 | 72 | 1013.2 |
| 20260504035003 | 53 | 0 | 0.0 | 0.0 | 0.00 | 0.00 | 0.00 | 72 | 1013.2 |
| 20260504034503 | 53 | 22 | 0.0 | 0.9 | 0.00 | 0.00 | 0.00 | 72 | 1013.1 |
| 20260504034003 | 53 | 22 | 0.0 | 1.7 | 0.00 | 0.00 | 0.00 | 72 | 1013.1 |
| 20260504033503 | 53 | 22 | 0.9 | 2.6 | 0.00 | 0.00 | 0.00 | 72 | 1013.0 |
| 20260504033003 | 53 | 22 | 0.9 | 2.6 | 0.00 | 0.00 | 0.00 | 72 | 1013.0 |
| 20260504032503 | 53 | 22 | 0.0 | 1.7 | 0.00 | 0.00 | 0.00 | 72 | 1013.0 |
| 20260504032003 | 53 | 22 | 0.0 | 0.9 | 0.00 | 0.00 | 0.00 | 72 | 1013.1 |
| 20260504031503 | 53 | 22 | 0.9 | 1.7 | 0.00 | 0.00 | 0.00 | 72 | 1013.0 |
| 20260504031003 | 53 | 22 | 0.9 | 1.7 | 0.00 | 0.00 | 0.00 | 72 | 1013.1 |
| 20260504030503 | 53 | 22 | 0.0 | 1.7 | 0.00 | 0.00 | 0.00 | 72 | 1012.9 |
| 20260504030003 | 53 | 15 | 0.9 | 2.6 | 0.00 | 0.00 | 0.00 | 72 | 1012.9 |
| 20260504025503 | 53 | 356 | 0.9 | 2.6 | 0.00 | 0.00 | 0.00 | 72 | 1012.9 |
| 20260504025003 | 53 | 15 | 0.9 | 2.6 | 0.00 | 0.00 | 0.00 | 72 | 1013.0 |
| 20260504024503 | 53 | 22 | 1.7 | 3.5 | 0.00 | 0.00 | 0.00 | 72 | 1012.9 |
| 20260504024003 | 53 | 17 | 0.9 | 2.6 | 0.00 | 0.00 | 0.00 | 72 | 1013.0 |
| 20260504023503 | 53 | 18 | 2.6 | 4.3 | 0.00 | 0.00 | 0.00 | 73 | 1013.0 |
| 20260504023003 | 54 | 19 | 2.6 | 5.2 | 0.00 | 0.00 | 0.00 | 72 | 1012.9 |
| 20260504022503 | 54 | 7 | 1.7 | 4.3 | 0.00 | 0.00 | 0.00 | 72 | 1013.0 |
| 20260504022003 | 54 | 24 | 0.9 | 2.6 | 0.00 | 0.00 | 0.00 | 72 | 1012.9 |
| 20260504021503 | 54 | 22 | 0.0 | 1.7 | 0.00 | 0.00 | 0.00 | 72 | 1012.9 |
| 20260504021003 | 54 | 0 | 0.0 | 0.0 | 0.00 | 0.00 | 0.00 | 72 | 1012.9 |
| 20260504020503 | 55 | 0 | 0.0 | 0.0 | 0.00 | 0.00 | 0.00 | 72 | 1012.9 |
| 20260504020003 | 55 | 0 | 0.0 | 0.0 | 0.00 | 0.00 | 0.00 | 72 | 1012.9 |
| 20260504015503 | 55 | 0 | 0.0 | 0.0 | 0.00 | 0.00 | 0.00 | 72 | 1012.9 |
| 20260504015003 | 55 | 0 | 0.0 | 0.0 | 0.00 | 0.00 | 0.00 | 72 | 1012.9 |